Cody, WY

8:23 AM MDT on July 27, 2017 (GMT -0600)
Yellowstone Regional

Weather History for KCOD - September, 2011

Change the Weather History Date:

Monday, September 19, 2011

  Actual Average Record
Temperature  
Mean Temperature 60 °F -  
Max Temperature 75 °F 69 °F 89 °F (1937)
Min Temperature 46 °F 40 °F 22 °F (1965)
Degree Days  
Heating Degree Days 4    
Growing Degree Days 10 (Base 50)    
Moisture  
Dew Point 32 °F    
Average Humidity 31    
Maximum Humidity 53    
Minimum Humidity 20    
Precipitation  
Precipitation 0.00 in - - ()
Sea Level Pressure  
Sea Level Pressure 30.06 in    
Wind  
Wind Speed 12 mph (SW)    
Max Wind Speed 30 mph    
Max Gust Speed 41 mph    
Visibility 10 miles    
Events      
Averages and records for this station are not official NWS values.
T = Trace of Precipitation, MM = Missing Value Source: NWS Daily Summary

Daily Weather History Graph

Daily Weather History Graph

Search for Another Location

Airport or City:

Trip Planner

Search our weather history database for the weather conditions in past years. The results will help you decide how hot, cold, wet, or windy it might be!

Date:

Astronomy

Sep. 19, 2011 Rise Set
Actual Time 6:59 AM MDT 7:19 PM MDT
Civil Twilight 6:30 AM MDT 7:48 PM MDT
Nautical Twilight 5:55 AM MDT 8:22 PM MDT
Astronomical Twilight 5:20 AM MDT 8:58 PM MDT
Moon 11:13 PM MDT (9/19) 2:08 PM MDT (9/19)
Length of Visible Light 13h 18m
Length of Day
12h 20m
Waning Gibbous, 58% of the Moon is Illuminated
Sep 19
Waning Gibbous
Sep 20
Last Quarter
Sep 27
New
Oct 3
First Quarter
Oct 11
Full

Hourly Weather History & Observations

Time (MDT) Temp. Windchill Dew Point Humidity Pressure Visibility Wind Dir Wind Speed Gust Speed Precip Events Conditions
12:15 AM 57.2 °F - 30.2 °F 36% 30.18 in 10.0 mi South 11.5 mph - N/A   Clear
12:35 AM 57.2 °F - 30.2 °F 36% 30.18 in 10.0 mi SSW 8.1 mph 17.3 mph N/A   Clear
12:55 AM 57.2 °F - 30.2 °F 36% 30.18 in 10.0 mi South 10.4 mph 16.1 mph N/A   Clear
1:15 AM 60.8 °F - 32.0 °F 34% 30.18 in 10.0 mi WSW 9.2 mph 25.3 mph N/A   Clear
1:35 AM 60.8 °F - 30.2 °F 31% 30.18 in 10.0 mi SW 8.1 mph - N/A   Clear
2:35 AM 57.2 °F - 30.2 °F 36% 30.17 in 10.0 mi SSW 10.4 mph - N/A   Clear
2:55 AM 57.2 °F - 30.2 °F 36% 30.17 in 10.0 mi SSW 8.1 mph - N/A   Clear
3:15 AM 60.8 °F - 32.0 °F 34% 30.16 in 10.0 mi South 10.4 mph - N/A   Clear
3:35 AM 57.2 °F - 30.2 °F 36% 30.16 in 10.0 mi South 5.8 mph - N/A   Clear
3:55 AM 57.2 °F - 32.0 °F 38% 30.15 in 10.0 mi SE 5.8 mph - N/A   Clear
4:15 AM 57.2 °F - 30.2 °F 36% 30.15 in 10.0 mi South 13.8 mph 18.4 mph N/A   Clear
4:35 AM 60.8 °F - 32.0 °F 34% 30.14 in 10.0 mi SSW 15.0 mph 26.5 mph N/A   Clear
4:55 AM 60.8 °F - 32.0 °F 34% 30.13 in 10.0 mi South 12.7 mph - N/A   Clear
5:15 AM 59.0 °F - 30.2 °F 34% 30.13 in 10.0 mi South 12.7 mph - N/A   Clear
5:35 AM 57.2 °F - 30.2 °F 36% 30.12 in 10.0 mi South 11.5 mph - N/A   Clear
5:55 AM 57.2 °F - 30.2 °F 36% 30.12 in 10.0 mi South 13.8 mph - N/A   Clear
6:15 AM 57.2 °F - 32.0 °F 38% 30.12 in 10.0 mi South 10.4 mph 18.4 mph N/A   Clear
6:35 AM 55.4 °F - 32.0 °F 41% 30.11 in 10.0 mi SE 10.4 mph - N/A   Clear
6:55 AM 55.4 °F - 33.8 °F 44% 30.11 in 10.0 mi SSW 10.4 mph - N/A   Clear
7:15 AM 55.4 °F - 33.8 °F 44% 30.11 in 10.0 mi South 10.4 mph - N/A   Clear
7:55 AM 60.8 °F - 33.8 °F 36% 30.11 in 10.0 mi SW 13.8 mph 19.6 mph N/A   Clear
8:15 AM 62.6 °F - 33.8 °F 34% 30.11 in 10.0 mi SW 11.5 mph 18.4 mph N/A   Clear
8:55 AM 62.6 °F - 35.6 °F 37% 30.11 in 10.0 mi SSW 9.2 mph - N/A   Mostly Cloudy
9:15 AM 62.6 °F - 33.8 °F 34% 30.11 in 10.0 mi SSW 9.2 mph - N/A   Scattered Clouds
9:55 AM 66.2 °F - 35.6 °F 32% 30.10 in 10.0 mi South 13.8 mph 18.4 mph N/A   Partly Cloudy
10:15 AM 66.2 °F - 35.6 °F 32% 30.10 in 10.0 mi SSW 9.2 mph - N/A   Clear
10:35 AM 68.0 °F - 35.6 °F 30% 30.09 in 10.0 mi South 8.1 mph - N/A   Clear
10:55 AM 69.8 °F - 35.6 °F 28% 30.08 in 10.0 mi SSW 9.2 mph 17.3 mph N/A   Partly Cloudy
11:15 AM 69.8 °F - 33.8 °F 27% 30.08 in 10.0 mi SW 13.8 mph 20.7 mph N/A   Scattered Clouds
11:35 AM 71.6 °F - 33.8 °F 25% 30.07 in 10.0 mi SW 15.0 mph 26.5 mph N/A   Mostly Cloudy
11:55 AM 69.8 °F - 33.8 °F 27% 30.05 in 10.0 mi SW 15.0 mph 27.6 mph N/A   Mostly Cloudy
12:15 PM 71.6 °F - 33.8 °F 25% 30.03 in 10.0 mi SSW 17.3 mph 24.2 mph N/A   Scattered Clouds
12:35 PM 71.6 °F - 33.8 °F 25% 30.02 in 10.0 mi SW 19.6 mph 27.6 mph N/A   Partly Cloudy
12:55 PM 71.6 °F - 33.8 °F 25% 30.01 in 10.0 mi SSW 16.1 mph 28.8 mph N/A   Clear
1:15 PM 73.4 °F - 33.8 °F 23% 29.99 in 10.0 mi SW 12.7 mph 20.7 mph N/A   Partly Cloudy
1:35 PM 73.4 °F - 33.8 °F 23% 29.98 in 10.0 mi SW 15.0 mph 24.2 mph N/A   Partly Cloudy
1:55 PM 73.4 °F - 32.0 °F 22% 29.98 in 10.0 mi SW 13.8 mph 25.3 mph N/A   Clear
2:15 PM 73.4 °F - 32.0 °F 22% 29.97 in 10.0 mi SW 15.0 mph 29.9 mph N/A   Clear
2:35 PM 75.2 °F - 32.0 °F 21% 29.96 in 10.0 mi SW 16.1 mph 29.9 mph N/A   Clear
2:55 PM 73.4 °F - 32.0 °F 22% 29.96 in 10.0 mi SW 12.7 mph 29.9 mph N/A   Scattered Clouds
3:15 PM 73.4 °F - 32.0 °F 22% 29.95 in 10.0 mi SW 19.6 mph 32.2 mph N/A   Mostly Cloudy
3:35 PM 73.4 °F - 30.2 °F 20% 29.94 in 10.0 mi SW 16.1 mph 25.3 mph N/A   Mostly Cloudy
3:55 PM 73.4 °F - 30.2 °F 20% 29.94 in 10.0 mi SW 15.0 mph 29.9 mph N/A   Mostly Cloudy
4:15 PM 73.4 °F - 32.0 °F 22% 29.93 in 10.0 mi WSW 10.4 mph 18.4 mph N/A   Mostly Cloudy
4:35 PM 73.4 °F - 30.2 °F 20% 29.93 in 10.0 mi SW 15.0 mph 25.3 mph N/A   Mostly Cloudy
4:55 PM 73.4 °F - 30.2 °F 20% 29.93 in 10.0 mi SSW 13.8 mph 23.0 mph N/A   Mostly Cloudy
5:15 PM 73.4 °F - 30.2 °F 20% 29.93 in 10.0 mi SW 17.3 mph 25.3 mph N/A   Mostly Cloudy
5:35 PM 73.4 °F - 30.2 °F 20% 29.93 in 10.0 mi SW 15.0 mph 29.9 mph N/A   Mostly Cloudy
5:55 PM 73.4 °F - 30.2 °F 20% 29.93 in 10.0 mi SW 6.9 mph 20.7 mph N/A   Mostly Cloudy
6:15 PM 73.4 °F - 30.2 °F 20% 29.94 in 10.0 mi WSW 16.1 mph 21.9 mph N/A   Scattered Clouds
6:35 PM 69.8 °F - 32.0 °F 25% 29.96 in 10.0 mi WNW 23.0 mph 33.4 mph N/A   Mostly Cloudy
6:55 PM 66.2 °F - 33.8 °F 30% 29.97 in 10.0 mi WNW 24.2 mph 35.7 mph N/A   Overcast
7:15 PM 60.8 °F - 32.0 °F 34% 30.01 in 10.0 mi NNW 29.9 mph 41.4 mph N/A   Overcast
7:35 PM 50.0 °F - 30.2 °F 47% 30.06 in 10.0 mi NNW 24.2 mph 40.3 mph N/A   Mostly Cloudy
7:55 PM 48.2 °F - 30.2 °F 50% 30.09 in 10.0 mi NNW 23.0 mph 33.4 mph N/A   Mostly Cloudy
8:15 PM 46.4 °F 37.7 °F 30.2 °F 53% 30.08 in 10.0 mi NNW 26.5 mph 32.2 mph N/A   Partly Cloudy
8:35 PM 46.4 °F 38.3 °F 30.2 °F 53% 30.09 in 10.0 mi NNW 23.0 mph 28.8 mph N/A   Clear
9:15 PM 46.4 °F 39.2 °F 30.2 °F 53% 30.13 in 10.0 mi NNW 18.4 mph 21.9 mph N/A   Overcast
9:35 PM 46.4 °F 41.5 °F 30.2 °F 53% 30.14 in 10.0 mi NW 10.4 mph - N/A   Overcast
9:55 PM 46.4 °F 41.5 °F 32.0 °F 57% 30.14 in 10.0 mi NW 10.4 mph - N/A   Overcast
10:15 PM 46.4 °F 41.1 °F 32.0 °F 57% 30.16 in 10.0 mi NNW 11.5 mph 17.3 mph N/A   Overcast
10:35 PM 46.4 °F 42.4 °F 32.0 °F 57% 30.16 in 10.0 mi NNW 8.1 mph - N/A   Overcast
10:55 PM 46.4 °F 42.4 °F 32.0 °F 57% 30.18 in 10.0 mi NNW 8.1 mph - N/A   Overcast
11:15 PM 46.4 °F 41.9 °F 32.0 °F 57% 30.20 in 10.0 mi NW 9.2 mph - N/A   Overcast
11:35 PM 48.2 °F - 30.2 °F 50% 30.21 in 10.0 mi NW 10.4 mph - N/A   Overcast
11:55 PM 48.2 °F - 28.4 °F 46% 30.21 in 10.0 mi NW 13.8 mph 24.2 mph N/A   Overcast